Powrót do katalogu

BREEZE-KM R/B

AktywnyPO
NORAD 39486·ROCKET BODY·🇷🇺 Russia

Wystrzelony Dec 25, 2013 z Plesetsk Cosmodrome

Loading…

Następne Przeloty (najbliższe 24 godziny)

TLE

ŚwieżeSource: Space-Track

Epoka: Sep 14, 2026, 10:02 UTC

1 39486U 13076D   26257.41831695  .00000008  00000-0 -16652-4 0  9999
2 39486  82.4782 247.2157 0233448 152.0761 209.3102 12.82992764595698

Śledź BREEZE-KM R/B w czasie rzeczywistym z AllMySat

Download on the App Store